FW0671 Weather Reports


time (UTC)temp
F
wind
direction
speed
knots
gust
knots
rain 1hr
in
rain 24hr
in
rain mn
in
humidity
%
barometer
mb
20190919183205 70 168 0.0 0.0 0.00 0.00 0.00 39 1015.9
20190919181811 70 168 0.0 0.0 0.00 0.00 0.00 39 1015.8
20190919180129 71 168 0.0 0.0 0.00 0.00 0.00 37 1015.6
20190919174633 71 168 0.0 0.0 0.00 0.00 0.00 37 1015.5
20190919173136 72 168 0.0 0.9 0.00 0.00 0.00 36 1015.3
20190919171633 73 168 0.0 0.0 0.00 0.00 0.00 36 1015.2
20190919170131 74 168 0.0 0.0 0.00 0.00 0.00 35 1015.2
20190919164620 75 168 0.0 0.9 0.00 0.00 0.00 34 1015.1
20190919163250 76 168 0.0 1.7 0.00 0.00 0.00 33 1014.9
20190919161623 78 168 0.0 1.7 0.00 0.00 0.00 32 1014.7
20190919160236 79 167 0.0 1.7 0.00 0.00 0.00 31 1014.5
20190919154710 79 155 0.0 2.6 0.00 0.00 0.00 31 1014.2
20190919153121 80 134 0.0 0.9 0.00 0.00 0.00 31 1014.2
20190919151642 81 134 0.0 5.2 0.00 0.00 0.00 30 1014.2
20190919150211 81 140 0.0 4.3 0.00 0.00 0.00 30 1014.1
20190919144657 82 153 0.0 2.6 0.00 0.00 0.00 30 1014.2
20190919143114 82 200 0.0 2.6 0.00 0.00 0.00 30 1014.1
20190919141651 83 142 0.0 4.3 0.00 0.00 0.00 29 1014.0
20190919140126 83 163 0.0 5.2 0.00 0.00 0.00 30 1013.9
20190919134642 84 218 0.0 4.3 0.00 0.00 0.00 30 1013.9
20190919133146 84 93 0.0 4.3 0.00 0.00 0.00 31 1013.8
20190919131624 84 229 0.0 4.3 0.00 0.00 0.00 28 1014.0
20190919130142 84 259 0.9 5.2 0.00 0.00 0.00 30 1014.0
20190919124645 84 229 0.0 7.0 0.00 0.00 0.00 30 1014.0
20190919123205 84 207 0.0 4.3 0.00 0.00 0.00 30 1014.0
20190919121658 84 159 0.0 8.7 0.00 0.00 0.00 31 1014.2
20190919120101 84 267 0.9 7.0 0.00 0.00 0.00 31 1014.3
20190919114608 84 127 0.0 7.0 0.00 0.00 0.00 31 1014.5
20190919113143 85 247 0.9 3.5 0.00 0.00 0.00 31 1014.6
20190919111638 84 219 0.0 7.0 0.00 0.00 0.00 32 1015.0
20190919110135 83 270 0.0 4.3 0.00 0.00 0.00 32 1015.2
20190919104613 82 132 0.9 6.1 0.00 0.00 0.00 31 1015.5
20190919103108 83 138 0.0 7.0 0.00 0.00 0.00 32 1015.7
20190919101602 83 221 1.7 5.2 0.00 0.00 0.00 31 1015.8
20190919100048 82 183 0.9 7.0 0.00 0.00 0.00 33 1016.0
20190919094615 81 180 0.0 6.1 0.00 0.00 0.00 34 1016.3
20190919093136 80 121 0.0 6.1 0.00 0.00 0.00 34 1016.5
20190919091530 81 153 0.9 6.1 0.00 0.00 0.00 33 1016.7
20190919090011 80 152 0.0 3.5 0.00 0.00 0.00 34 1016.9
20190919084537 79 236 0.0 4.3 0.00 0.00 0.00 36 1017.2
20190919083019 78 234 0.0 4.3 0.00 0.00 0.00 37 1017.1
20190919081917 77 140 0.0 7.0 0.00 0.00 0.00 40 1017.1
20190919080138 76 205 0.0 3.5 0.00 0.00 0.00 41 1017.2
20190919074649 75 202 0.0 3.5 0.00 0.00 0.00 44 1017.4
20190919073119 74 273 0.0 5.2 0.00 0.00 0.00 44 1017.5
20190919071641 73 169 0.0 7.0 0.00 0.00 0.00 45 1017.7
20190919070057 72 231 0.0 4.3 0.00 0.00 0.00 46 1017.7
20190919064612 71 229 0.0 2.6 0.00 0.00 0.00 48 1017.6
20190919063109 70 227 0.0 3.5 0.00 0.00 0.00 49 1017.7
20190919061553 69 227 0.0 4.3 0.00 0.00 0.00 50 1017.9
20190919060036 67 224 0.0 4.3 0.00 0.00 0.00 51 1017.8
20190919054537 65 223 0.0 4.3 0.00 0.00 0.00 52 1017.8
20190919053022 63 224 0.0 5.2 0.00 0.00 0.00 55 1017.7
20190919051509 61 236 0.0 0.9 0.00 0.00 0.00 55 1017.7
20190919050005 60 236 0.0 0.9 0.00 0.00 0.00 55 1017.6
20190919044709 59 236 0.0 0.9 0.00 0.00 0.00 54 1017.4
20190919043218 59 236 0.0 0.9 0.00 0.00 0.00 53 1017.3
20190919041750 60 236 0.0 0.9 0.00 0.00 0.00 52 1017.0
20190919040129 60 236 0.0 0.9 0.00 0.00 0.00 51 1016.9
20190919034615 61 236 0.0 0.9 0.00 0.00 0.00 50 1016.8
20190919033117 61 236 0.0 1.7 0.00 0.00 0.00 49 1016.7
20190919031617 61 236 0.0 3.5 0.00 0.00 0.00 49 1016.5
20190919030140 61 236 0.0 2.6 0.00 0.00 0.00 48 1016.4
20190919024608 62 236 0.0 2.6 0.00 0.00 0.00 48 1016.2
20190919023100 62 236 0.0 1.7 0.00 0.00 0.00 47 1016.0
20190919021650 62 236 0.0 1.7 0.00 0.00 0.00 46 1016.0
20190919020205 63 236 0.0 2.6 0.00 0.00 0.00 46 1016.1
20190919014621 63 234 0.0 2.6 0.00 0.00 0.00 45 1016.0
20190919013106 63 234 0.0 0.9 0.00 0.00 0.00 45 1015.9
20190919011640 63 234 0.0 0.9 0.00 0.00 0.00 45 1016.0
20190919010122 64 235 0.0 0.9 0.00 0.00 0.00 45 1016.1
20190919004611 64 235 0.0 0.9 0.00 0.00 0.00 45 1016.0
20190919003054 64 235 0.0 0.9 0.00 0.00 0.00 45 1016.2
20190919001538 64 235 0.0 0.0 0.00 0.00 0.00 44 1016.3
20190919000130 64 235 0.0 0.0 0.00 0.00 0.00 44 1016.2
20190918234551 65 235 0.0 0.9 0.00 0.00 0.00 45 1016.4
20190918233041 65 235 0.0 0.9 0.00 0.00 0.00 45 1016.4
20190918231616 66 235 0.0 1.7 0.00 0.00 0.00 45 1016.3
20190918230057 67 235 0.0 0.0 0.00 0.00 0.00 45 1016.4
20190918224520 68 234 0.0 0.0 0.00 0.00 0.00 46 1016.4
20190918223016 68 235 0.0 0.9 0.00 0.00 0.00 46 1016.4
20190918221543 68 235 0.0 7.0 0.00 0.00 0.00 45 1016.4
20190918220010 68 257 0.0 0.9 0.00 0.00 0.00 45 1016.4
20190918214508 68 257 0.0 0.0 0.00 0.00 0.00 47 1016.2
20190918213006 68 257 0.0 0.0 0.00 0.00 0.00 47 1016.1
20190918211508 69 257 0.0 0.0 0.00 0.00 0.00 46 1016.0
20190918210012 69 257 0.0 0.0 0.00 0.00 0.00 45 1015.9
20190918204509 70 256 0.0 0.0 0.00 0.00 0.00 45 1015.8
20190918203006 70 256 0.0 0.0 0.00 0.00 0.00 44 1015.8
20190918201520 70 257 0.0 0.0 0.00 0.00 0.00 44 1015.8
20190918200011 70 257 0.0 0.9 0.00 0.00 0.00 44 1015.6
20190918194509 70 257 0.0 0.9 0.00 0.00 0.00 44 1015.5
20190918193002 70 257 0.0 0.0 0.00 0.00 0.00 44 1015.5
20190918191500 71 257 0.0 0.0 0.00 0.00 0.00 45 1015.5
20190918190201 71 256 0.0 0.0 0.00 0.00 0.00 44 1015.4
20190918184736 71 257 0.0 0.0 0.00 0.00 0.00 44 1015.3